TDRS 3 1 19548U 88091B 25039.22753064 -.00000302 00000-0 00000-0 0 9997 2 19548 12.9791 344.2969 0042246 341.9038 205.4246 1.00269038120433 HST 1 20580U 90037B 25039.71933748 .00009365 00000-0 37919-3 0 9990 2 20580 28.4660 194.3498 0002962 99.1209 260.9720 15.22925076713062 TDRS 5 1 21639U 91054B 25038.81458400 -.00000306 00000-0 00000-0 0 9998 2 21639 14.1307 357.3921 0005223 298.7550 73.0173 1.00269230122769 TDRS 6 1 22314U 93003B 25039.38044993 -.00000302 00000-0 00000-0 0 9992 2 22314 14.1697 0.6870 0006325 186.5567 42.5227 1.00269469117454 TDRS 7 1 23613U 95035B 25039.89466130 -.00000207 00000-0 00000+0 0 9992 2 23613 13.5818 351.5817 0024064 65.6615 128.7532 1.00277529108200 ISS (ZARYA) 1 25544U 98067A 25039.96162986 .00016131 00000-0 29064-3 0 9992 2 25544 51.6374 222.1245 0003546 290.1977 196.1848 15.49938732495274 LANDSAT 7 1 25682U 99020A 25039.97621453 .00000886 00000-0 18803-3 0 9994 2 25682 97.8716 61.4519 0001297 78.3807 338.6804 14.61355710373717 TERRA 1 25994U 99068A 25040.19754632 .00000859 00000-0 18649-3 0 9992 2 25994 98.0169 102.4215 0002166 16.3019 50.2997 14.60454275337759 TDRS 8 1 26388U 00034A 25039.65189802 .00000083 00000-0 00000-0 0 9993 2 26388 11.9080 35.3436 0006933 246.5227 284.1226 1.00271022 90235 EO 1 1 26619U 00075A 25040.14042425 .00001761 00000-0 31608-3 0 9995 2 26619 98.0508 357.5841 0007737 248.6446 111.3934 14.67941100292601 TIMED 1 26998U 01055B 25039.75862441 .00003439 00000-0 33205-3 0 9996 2 26998 74.0705 147.1304 0000323 261.3873 98.7274 14.93268913257116 TDRS 9 1 27389U 02011A 25039.19099417 -.00000012 00000-0 00000-0 0 9996 2 27389 11.1150 51.6439 0002734 181.7514 8.6960 0.98981558 85398 AQUA 1 27424U 02022A 25040.15038493 .00001942 00000-0 40739-3 0 9991 2 27424 98.3618 357.0485 0002294 82.1383 7.4081 14.60810653211299 TDRS 10 1 27566U 02055A 25039.59277779 .00000076 00000-0 00000-0 0 9993 2 27566 10.0534 43.5322 0010749 302.1573 195.5142 1.00274526 81285 SORCE 1 27651U 03004A 25040.12684207 .00006533 00000-0 54022-3 0 9992 2 27651 39.9899 185.6449 0018551 112.7352 247.5403 14.98950764197788 AURA 1 28376U 04026A 25039.92757950 .00001988 00000-0 42495-3 0 9994 2 28376 98.2798 349.6968 0001714 78.4679 281.6714 14.59916838 94208 SWIFT 1 28485U 04047A 25039.33474051 .00023696 00000-0 74147-3 0 9990 2 28485 20.5554 276.3091 0006190 110.5576 249.5528 15.31112966110269 THEMIS A 1 30580U 07004A 25039.13501525 .00000016 00000-0 00000-0 0 9995 2 30580 6.4159 242.3150 8430308 9.1753 359.8828 0.87838666 36937 THEMIS D 1 30797U 07004D 25040.09723956 .00000033 00000-0 00000+0 0 9994 2 30797 1.7871 238.8857 8409071 17.0225 293.2930 0.87838922 61157 THEMIS E 1 30798U 07004E 25039.20994444 -.00000015 00000-0 00000-0 0 9990 2 30798 4.1638 272.5585 8398616 344.0674 25.4348 0.87836625 61574 GLAST 1 33053U 08029A 25039.63417585 .00006451 00000-0 27645-3 0 9994 2 33053 25.5840 21.6314 0009298 278.4669 81.4814 15.19964955920558 TDRS 11 1 39070U 13004A 25040.18378088 .00000070 00000-0 00000+0 0 9997 2 39070 2.9092 19.6220 0003210 4.6610 6.9844 1.00268621 44045 TDRS 12 1 39504U 14004A 25039.89037719 -.00000277 00000-0 00000-0 0 9990 2 39504 3.6120 9.0865 0003655 266.9285 142.8707 1.00269660 39337 GPM 1 39574U 14009C 25039.89152781 .00021934 00000-0 47937-3 0 9994 2 39574 64.9789 160.4729 0009434 247.0942 112.9203 15.44145794621618 MMS 1 1 40482U 15011A 25040.16667824 -.00002767 00000-0 00000+0 0 9999 2 40482 60.4957 358.8179 8854799 156.5015 286.0876 0.28427946 16045 MMS 2 1 40483U 15011B 25040.16667824 -.00002770 00000-0 00000+0 0 9994 2 40483 60.4975 358.8152 8860248 156.4971 285.4788 0.28439566 16027 MMS 3 1 40484U 15011C 25040.16667824 -.00002769 00000-0 00000+0 0 9993 2 40484 60.4986 358.8144 8859191 156.4968 285.6199 0.28437728 16028 MMS 4 1 40485U 15011D 25040.16667824 -.00002767 00000-0 00000+0 0 9992 2 40485 60.4713 358.8263 8858074 156.4929 275.7954 0.28453972 16023